Find Starlink 32842

NORAD ID: 62822 Int'l Des: 2025-018 Owner: SPXS Country: US Constellation: starlink operational
LEOCIRCULAR

Current View

Loading 3D Globe...

About Starlink 32842

Starlink 32842 (NORAD 62822) is a starlink constellation satellite (v2 mini) launched Jan 24, 2025 by SPXS of US. It operates in LEO, CIRCULAR orbit with a mass of 730.00 kg.

About Starlink 32842

Description loading...

Upcoming Passes

Passes for default location (London). Set your location on the main map for personalized predictions.

Altitude History

Loading altitude history...

Two-Line Element Set

1 62822U 25018S 26166.84983578 .00004575 00000-0 14642-3 0 9990
2 62822 53.1583 213.1920 0001352 89.5356 270.5802 15.34412263 78215
Epoch: Jun 15, 2026 • Age: 12 hours

Current Status

Altitude 465.7 km
Velocity 7.63 km/s
Sub-Earth Point -10.52°S, 165.5°E
Launch Date Jan 24, 2025
Age 1.3 years
Type internet

Technical Details

Classification Payload
Mass 730.00 kg
Dry Mass 700.00 kg
Total Mass 730.00 kg
Length 0.30 m
Diameter 4.10 m
Span 29.00 m
Shape Box + pan
Manufacturer SPXS
Bus Type Starlink V2M
Phase Status In Orbit
Owner/State SPXS/US

Most Searched